Date String (YYYY-MM-DD hh:mm:ss) UTC,Instrument flags,Ambient pressure (hPa),Sample flow (lpm),Bypass flow (lpm),Sample temperature (°C),Ambient temperature (°C),ASC tube jacket temperature (°C),LED temperature (°C),Box temperature (°C),Sample RH (%),Span deviation,Mass concentration (μg/m³),Mass concentration (μg/m³),Mass concentration (μg/m³)
DateTimeUTC,F1_M11,P_M11,Q1_M11,Q2_M11,T1_M11,T2_M11,T3_M11,T4_M11,T5_M11,U1_M11,ZSPAN_M11,X0_M11,X2_M11,X1_M11
2021-11-01 01:00:00,,0829.8,4.99,0.00,26.0,25.1,00.0,34.9,27.8,17.4,0000.0,0011.77,0005.27,0004.64
2021-11-01 01:01:00,,0829.8,5.00,0.00,26.0,25.1,00.0,34.9,27.8,17.4,0000.0,0012.13,0005.25,0004.64
2021-11-01 01:02:00,,0829.8,5.00,0.00,26.0,25.1,00.0,34.9,27.8,17.4,0000.0,0012.43,0005.28,0004.65
2021-11-01 01:03:00,,0829.8,5.01,0.00,26.0,25.1,00.0,35.0,27.8,17.5,0000.0,0011.95,0005.26,0004.66
2021-11-01 01:04:00,,0829.8,5.00,0.00,26.0,25.1,00.0,35.0,27.8,17.5,0000.0,0012.00,0005.27,0004.68
2021-11-01 01:05:00,,0829.8,5.01,0.00,26.0,25.1,00.0,34.9,27.8,17.4,0000.0,0012.21,0005.26,0004.69
2021-11-01 01:06:00,,0829.9,4.99,0.00,26.0,25.1,00.0,34.9,27.8,17.4,0000.0,0012.51,0005.32,0004.71
2021-11-01 01:07:00,,0829.8,5.00,0.00,26.0,25.1,00.0,35.0,27.8,17.5,0000.0,0012.40,0005.33,0004.73
2021-11-01 01:08:00,,0829.7,5.00,0.00,26.0,25.1,00.0,35.0,27.8,17.5,0000.0,0012.67,0005.36,0004.75
2021-11-01 01:09:00,,0829.8,5.00,0.00,26.0,25.1,00.0,35.0,27.8,17.4,0000.0,0012.67,0005.37,0004.76
2021-11-01 01:10:00,,0829.8,5.00,0.00,26.0,25.1,00.0,35.0,27.8,17.5,0000.0,0011.90,0005.40,0004.77
2021-11-01 01:11:00,,0829.8,5.01,0.00,26.0,25.1,00.0,35.0,27.8,17.5,0000.0,0011.79,0005.46,0004.79
2021-11-01 01:12:00,,0829.8,5.01,0.00,26.0,25.0,00.0,35.0,27.8,17.5,0000.0,0011.38,0005.49,0004.80
2021-11-01 01:13:00,,0829.8,4.99,0.00,25.9,25.0,00.0,35.0,27.8,17.6,0000.0,0010.71,0005.46,0004.80
2021-11-01 01:14:00,,0829.7,5.01,0.00,25.9,25.0,00.0,35.0,27.8,17.6,0000.0,0010.57,0005.46,0004.79
2021-11-01 01:15:00,,0829.7,5.01,0.00,25.9,25.0,00.0,35.0,27.8,17.6,0000.0,0010.38,0005.46,0004.79
2021-11-01 01:16:00,,0829.7,5.00,0.00,25.9,25.0,00.0,35.0,27.8,17.6,0000.0,0010.21,0005.47,0004.79
2021-11-01 01:17:00,,0829.7,4.99,0.00,25.9,25.0,00.0,35.0,27.8,17.6,0000.0,0009.87,0005.40,0004.77
2021-11-01 01:18:00,,0829.6,5.01,0.00,25.9,25.0,00.0,35.0,27.7,17.6,0000.0,0009.86,0005.36,0004.75
2021-11-01 01:19:00,,0829.9,4.99,0.00,25.9,25.0,00.0,34.9,27.7,17.6,0000.0,0009.88,0005.36,0004.75
2021-11-01 01:20:00,,0829.6,4.99,0.00,25.9,25.0,00.0,34.9,27.7,17.6,0000.0,0009.81,0005.39,0004.74
2021-11-01 01:21:00,,0829.5,5.02,0.00,25.9,25.0,00.0,34.9,27.7,17.6,0000.0,0009.76,0005.38,0004.74
2021-11-01 01:22:00,,0829.5,4.99,0.00,25.9,25.0,00.0,34.9,27.8,17.6,0000.0,0009.33,0005.33,0004.73
2021-11-01 01:23:00,,0829.6,5.01,0.00,25.9,25.0,00.0,34.9,27.8,17.6,0000.0,0009.02,0005.28,0004.71
2021-11-01 01:24:00,,0829.5,5.00,0.00,25.9,25.0,00.0,34.9,27.8,17.6,0000.0,0008.96,0005.29,0004.72
2021-11-01 01:25:00,,0829.6,5.00,0.00,25.9,25.0,00.0,34.9,27.8,17.6,0000.0,0008.99,0005.31,0004.71
2021-11-01 01:26:00,,0829.6,5.00,0.00,25.9,25.0,00.0,34.9,27.7,17.6,0000.0,0008.98,0005.31,0004.71
2021-11-01 01:27:00,,0829.5,5.00,0.00,25.9,25.0,00.0,34.9,27.7,17.6,0000.0,0009.24,0005.33,0004.72
2021-11-01 01:28:00,,0829.5,5.00,0.00,25.9,25.0,00.0,34.9,27.7,17.6,0000.0,0009.27,0005.31,0004.71
2021-11-01 01:29:00,,0829.5,5.00,0.00,25.9,25.0,00.0,34.9,27.8,17.6,0000.0,0009.08,0005.33,0004.71
2021-11-01 01:30:00,,0829.5,5.01,0.00,25.9,25.0,00.0,34.9,27.8,17.6,0000.0,0008.65,0005.33,0004.71
2021-11-01 01:31:00,,0829.5,4.99,0.00,25.9,25.0,00.0,34.9,27.7,17.6,0000.0,0008.62,0005.33,0004.71
2021-11-01 01:32:00,,0829.5,5.00,0.00,25.9,25.0,00.0,34.9,27.7,17.6,0000.0,0008.64,0005.34,0004.71
2021-11-01 01:33:00,,0829.6,5.00,0.00,25.9,25.0,00.0,34.9,27.7,17.6,0000.0,0008.57,0005.32,0004.71
2021-11-01 01:34:00,,0829.6,4.99,0.00,25.9,25.0,00.0,34.9,27.8,17.6,0000.0,0008.90,0005.34,0004.72
2021-11-01 01:35:00,,0829.6,5.00,0.00,25.9,25.0,00.0,34.9,27.8,17.6,0000.0,0009.74,0005.33,0004.71
2021-11-01 01:36:00,,0829.5,5.02,0.00,25.9,25.0,00.0,34.9,27.7,17.6,0000.0,0010.54,0005.35,0004.72
2021-11-01 01:37:00,,0829.5,5.00,0.00,25.9,25.0,00.0,34.9,27.7,17.6,0000.0,0011.03,0005.31,0004.72
2021-11-01 01:38:00,,0829.6,5.00,0.00,25.9,25.0,00.0,34.9,27.8,17.7,0000.0,0010.69,0005.28,0004.71
2021-11-01 01:39:00,,0829.6,5.01,0.00,25.9,25.0,00.0,34.9,27.8,17.7,0000.0,0010.89,0005.35,0004.73
2021-11-01 01:40:00,,0829.7,5.00,0.00,25.9,25.0,00.0,34.9,27.8,17.6,0000.0,0011.46,0005.37,0004.74
2021-11-01 01:41:00,,0829.6,4.98,0.00,25.9,25.0,00.0,34.9,27.7,17.6,0000.0,0011.67,0005.38,0004.75
2021-11-01 01:42:00,,0829.6,5.00,0.00,25.9,25.0,00.0,34.9,27.7,17.7,0000.0,0011.58,0005.36,0004.75
2021-11-01 01:43:00,,0829.7,5.01,0.00,25.9,25.0,00.0,34.9,27.7,17.7,0000.0,0012.51,0005.37,0004.76
2021-11-01 01:44:00,,0829.6,4.99,0.00,25.9,25.0,00.0,34.9,27.7,17.7,0000.0,0013.20,0005.40,0004.77
2021-11-01 01:45:00,,0829.6,5.00,0.00,25.9,25.0,00.0,34.9,27.7,17.8,0000.0,0013.22,0005.41,0004.78
2021-11-01 01:46:00,,0829.7,5.01,0.00,25.9,25.0,00.0,34.9,27.7,17.8,0000.0,0012.82,0005.43,0004.80
2021-11-01 01:47:00,,0829.7,4.99,0.00,25.9,25.0,00.0,34.9,27.7,17.7,0000.0,0011.97,0005.39,0004.82
2021-11-01 01:48:00,,0829.8,5.00,0.00,25.9,25.0,00.0,34.9,27.7,17.7,0000.0,0012.67,0005.43,0004.85
2021-11-01 01:49:00,,0829.8,5.00,0.00,25.9,25.0,00.0,34.9,27.7,17.7,0000.0,0012.90,0005.46,0004.87
2021-11-01 01:50:00,,0829.7,5.00,0.00,25.9,25.0,00.0,34.9,27.7,17.7,0000.0,0012.81,0005.47,0004.88
2021-11-01 01:51:00,,0829.7,4.99,0.00,25.9,25.0,00.0,34.9,27.7,17.7,0000.0,0012.27,0005.47,0004.89
2021-11-01 01:52:00,,0829.7,5.01,0.00,25.9,25.0,00.0,34.9,27.7,17.7,0000.0,0012.07,0005.48,0004.92
2021-11-01 01:53:00,,0829.8,5.00,0.00,25.9,25.0,00.0,34.9,27.7,17.7,0000.0,0012.18,0005.48,0004.94
2021-11-01 01:54:00,,0829.8,5.00,0.00,25.9,25.0,00.0,34.9,27.7,17.7,0000.0,0011.29,0005.51,0004.96
2021-11-01 01:55:00,,0829.8,5.01,0.00,25.9,25.0,00.0,34.9,27.7,17.6,0000.0,0011.17,0005.55,0005.00
2021-11-01 01:56:00,,0829.8,5.01,0.00,25.9,25.0,00.0,34.9,27.7,17.6,0000.0,0011.07,0005.57,0005.03
2021-11-01 01:57:00,,0829.9,5.00,0.00,25.9,24.9,00.0,34.9,27.7,17.6,0000.0,0010.63,0005.58,0005.04
2021-11-01 01:58:00,,0829.8,4.99,0.00,25.9,24.9,00.0,34.9,27.7,17.6,0000.0,0010.85,0005.63,0005.06
2021-11-01 01:59:00,,0829.8,5.01,0.00,25.9,25.0,00.0,34.9,27.7,17.6,0000.0,0009.62,0005.65,0005.08
